THURAYA-3 (32404 NORAD) Tracking and Keplerian Element Data

This shows tracking and keplerian element data for the satellite.

Feedback or suggestion? Click here.




ElementValue
Catalog32404
NameTHURAYA-3
Epoch Orbit3975
Epoch Day319.97226471
Epoch Year2018
RAAN0.2533
Inclination3.8605
Eccentricity0.0004997
Argument of Perigee224.5385
Mean Anonmoly278.7493
Mean Motion1.00273183
Decay Rate-2.99E-06
L11 32404U 08001A 18319.97226471 -.00000299 00000-0 00000+0 0 9992
L22 32404 3.8605 0.2533 0004997 224.5385 278.7493 1.00273183 39757

Live tracking and technical data element details for THURAYA-3 (NORAD 32404). THURAYA-3 can be tracked NOW for your location showing map with azimuth and elevation plus other details from your city location.

Track the satellite on the map from your city or location and see movement details for azimuth, elevation, latitude, longitude, range, height, and movement on the map or in text.







IsCatalogInMostPopularTable: catalog: 32404, numindb: 287
Update: records affected: 1



GetName: 32404 THURAYA-3

Hit Count: updated at: Fri, 16 Nov 2018 09:13:06 GMT